Regional Weather Roundup
Issued by NWS

Home | Current Version | Previous Version | Graphics & Text | Print | Product List | Glossary On
Versions: 1 2 3 4 5 6 7 8 9 10 11 12 13 14 15 16 17 18 19 20 21 22 23 24 25 26 27 28 29 30 31 32 33 34 35 36 37 38 39 40 41 42 43 44 45 46 47 48 49 50
000
ASUS43 KLOT 290108
RWRIL

ILLINOIS REGIONAL WEATHER ROUNDUP
NATIONAL WEATHER SERVICE CHICAGO/ROMEOVILLE IL
800 PM CDT WED JUN 28 2017

NOTE: "FAIR" INDICATES FEW OR NO CLOUDS BELOW 12,000 FEET WITH NO
SIGNIFICANT WEATHER AND/OR OBSTRUCTIONS TO VISIBILITY.

* THESE STATIONS ARE NOT UNDER NWS QUALITY CONTROL. THEY ALSO MAY NOT
  REPORT WEATHER SUCH AS PRECIPITATION OR FOG.

ILZ001-002-007-009-015-016-024-290200-
NORTHWEST ILLINOIS

CITY           SKY/WX    TMP DP  RH WIND       PRES   REMARKS
MOLINE         LGT RAIN  80  68  66 S10G23    29.68F HX  83
STERLING*      PTCLDY    78  66  66 S9G18     29.70F HX  80
SAVANNA*       CLOUDY    78  68  72 S15G25    29.66F HX  80
$$

ILZ003-004-008-010-011-017-018-290200-
NORTH CENTRAL ILLINOIS

CITY           SKY/WX    TMP DP  RH WIND       PRES   REMARKS
ROCKFORD       CLOUDY    77  65  66 S29G35    29.68F THUNDER
FREEPORT*      CLOUDY    66  61  81 N13G36    29.76R
ROCHELLE*      CLOUDY    75  65  70 S18       29.73F
DE KALB*       MOCLDY    74  64  71 S17       29.76F
PERU*          CLEAR     77  64  62 S15       29.78R
$$

ILZ005-006-012>014-019>023-290200-
NORTHEAST ILLINOIS

CITY           SKY/WX    TMP DP  RH WIND       PRES   REMARKS
CHICAGO-OHARE  CLOUDY    78  62  57 S17       29.76S HX  80
CHICAGO-MIDWAY CLOUDY    80  62  54 S15G24    29.77F HX  81
AURORA         CLEAR     77  64  64 S16       29.77F
LANSING*       MOCLDY    78  58  49 S21G30    29.81F
JOLIET*        CLEAR     80  62  53 S15G25    29.78F HX  81
WAUKEGAN       CLOUDY    74  63  68 S16       29.73F
DUPAGE AIRPORT CLOUDY    76  65  68 S15G24    29.75F
WHEELING       CLOUDY    76  64  66 S16       29.76F
MORRIS*        CLEAR     78  62  58 S15G22    29.76F
ROMEOVILLE*    CLOUDY    76  61  59 S20G25    29.78F
$$

LMZ740>746-290200-
SOUTHERN LAKE MICHIGAN

STATION/POSITION SKY/WX   TEMP    WIND        PRES    VSBY  WAVE
                          AIR SEA DIR/SP/G                  HT/PER
                          (F)     (DEG/KT/KT) (MB)    (MI)  (FT/S)
SOUTHERN BUOY              67 60  180/ 17/ 19 1007.8          4/ 5
WILMETTE HARBOR            74 62  190/ 16/ 21   N/A           3/ 4
HARRISON CRIB              78     190/ 29/ 34   N/A
BURNHAM HARBOR             78                   N/A
CALUMET HARBOR             79     180/ 14/ 21 1008.1F
BURNS HARBOR               78     190/ 19/ 24 1009.5R
MICHIGAN CITY              78     170/ 19/ 24   N/A
MICHIGAN CITY 6N           75 65  190/ 17/ 25   N/A           3/ 3
ST. JOSEPH                 74 67  190/ 17/ 23 1009.2          3/ 3
$$

ILZ025>027-034>036-040-047-049-050-058-095>099-290200-
WEST-CENTRAL ILLINOIS

CITY           SKY/WX    TMP DP  RH WIND       PRES   REMARKS
QUINCY         CLEAR     82  62  50 S15       29.81R HX  83
GALESBURG*     CLOUDY    79  64  59 S12G17    29.78S HX  81
MACOMB*        CLEAR     81  62  53 S10       29.81S HX  82
JACKSONVILLE*  CLEAR     82  63  52 S12       29.83R HX  83
PITTSFIELD*    CLEAR     82  64  56 S7        29.84R HX  83
$$

ILZ028>032-037-038-041>044-048-051>054-059>061-290200-
CENTRAL ILLINOIS

CITY           SKY/WX    TMP DP  RH WIND       PRES   REMARKS
PONTIAC        PTCLDY    80  63  55 S14G23    29.82F HX  81
BLOOMINGTON    CLEAR     78  62  57 S22       29.84S HX  80
DECATUR        CLEAR     80  61  52 S15       29.88R HX  81
PEORIA         PTCLDY    81  64  56 S18       29.80R HX  82
LACON*         CLEAR     80  63  57 S14G21    29.77S HX  81
LINCOLN*       CLEAR     81  64  56 S14G23    29.84S HX  83
SPRINGFIELD    CLEAR     82  64  54 S15G21    29.85R HX  83
TAYLORVILLE    CLEAR     79  61  55 S13       29.87R HX  80
$$

ILZ033-039-045-046-055>057-062-063-290200-
EAST-CENTRAL ILLINOIS

CITY           SKY/WX    TMP DP  RH WIND       PRES   REMARKS
CHAMPAIGN      CLEAR     79  61  53 S15       29.89R HX  80
RANTOUL*       CLEAR     81  62  53 S15G23    29.88S HX  82
MATTOON        CLEAR     79  64  60 S8        29.91R HX  81
PARIS*         CLEAR     76  63  62 S9        29.93R
$$

ILZ079-100>102-290200-
SOUTHWEST ILLINOIS

CITY           SKY/WX    TMP DP  RH WIND       PRES   REMARKS
ALTON          MOCLDY    81  63  54 S16       29.87R HX  82
BELLEVILLE     CLEAR     81  65  58 SW14      29.89R HX  83
CAHOKIA*       CLEAR     83  62  49 S8        29.86R HX  84
SPARTA*        CLEAR     81  64  56 S12G17    29.90S HX  82
$$

ILZ064>066-069>071-074>076-080>082-084>086-088>090-092>094-290200-
SOUTH-CENTRAL ILLINOIS

CITY           SKY/WX    TMP DP  RH WIND       PRES   REMARKS
CARBONDALE     CLOUDY    80  65  59 S14G22    29.90F HX  82
CAIRO*         CLOUDY    82  64  53 S10       29.93F HX  83
EFFINGHAM*     PTCLDY    80  64  58 SE8       29.93R HX  81
MARION         CLOUDY    81  64  57 S9        29.93F HX  82
CENTRALIA*     CLEAR     81  65  59 S12G18    29.90S HX  83
SALEM*         CLEAR     81  63  53 S8        29.91R HX  82
METROPOLIS*    RAIN      81  65  57 S3        29.96S HX  83
$$

ILZ067-068-072-073-078-083-087-091-290200-
SOUTHEAST ILLINOIS

CITY           SKY/WX    TMP DP  RH WIND       PRES   REMARKS
LAWRENCEVILLE  CLEAR     78  62  57 S13       29.93F HX  80
FLORA*         CLEAR     82  64  54 S10       29.92R HX  83
FAIRFIELD*     CLEAR     80  64  58 S9        29.90F HX  82
HARRISBURG*    MOCLDY    79  68  69 S7        29.93F HX  81
ROBINSON*      CLEAR     77  62  58 S9        29.93F
CARMI*         MOCLDY    78  66  67 SE12      29.93F HX  80
$$

ABBREVIATIONS USED IN REMARKS
   TC - TEMPERATURE IN CELSIUS
  WCI - WIND CHILL INDEX
   HX - HEAT INDEX
  VSB - VISIBILITY
$$





USA.gov is the U.S. government's official web portal to all federal, state and local government web resources and services.